• In Germany
  • List of Countries
  • For 7 days
  • Water Temperature
  • Satellite Maps
  • Weather Map
  • Weather Widgets
  • user-avatar
    Login

    Hourly Weather Ali Bayramli

    Today, 27 April, Thursday

    Time Temperature Precipitation Wind Pressure Humidity
    00:00 +10°C° 0 mm 1 mps 773 mmHg 65%
    01:00 +8°C° 0 mm 0 mps 773 mmHg 66%
    02:00 +7°C° 0 mm 0 mps 772 mmHg 68%
    03:00 +7°C° 0 mm 0 mps 772 mmHg 71%
    04:00 +8°C° 0 mm 0 mps 772 mmHg 69%
    05:00 +9°C° 0 mm 0 mps 772 mmHg 66%
    06:00 +9°C° 0 mm 0 mps 772 mmHg 63%
    07:00 +12°C° 0 mm 1 mps 772 mmHg 56%
    08:00 +13°C° 0 mm 1 mps 772 mmHg 50%
    09:00 +15°C° 0 mm 1 mps 772 mmHg 43%
    10:00 +16°C° 0 mm 2 mps 772 mmHg 42%
    11:00 +17°C° 0 mm 3 mps 772 mmHg 41%
    12:00 +18°C° 0 mm 3 mps 771 mmHg 39%
    13:00 +18°C° 0 mm 4 mps 771 mmHg 40%
    14:00 +18°C° 0 mm 4 mps 771 mmHg 40%
    15:00 +19°C° 0 mm 5 mps 770 mmHg 41%
    16:00 +18°C° 0 mm 4 mps 770 mmHg 43%
    17:00 +17°C° 0 mm 4 mps 770 mmHg 46%
    18:00 +15°C° 0 mm 4 mps 770 mmHg 49%
    19:00 +13°C° 0 mm 3 mps 770 mmHg 52%
    20:00 +13°C° 0 mm 2 mps 770 mmHg 55%
    21:00 +12°C° 0 mm 1 mps 771 mmHg 58%
    22:00 +12°C° 0 mm 1 mps 770 mmHg 60%
    23:00 +11°C° 0 mm 1 mps 770 mmHg 62%

    Tomorrow, 28 April, Friday

    Time Temperature Precipitation Wind Pressure Humidity
    00:00 +11°C° 0 mm 1 mps 770 mmHg 64%
    01:00 +11°C° 0 mm 1 mps 770 mmHg 65%
    02:00 +11°C° 0 mm 1 mps 770 mmHg 66%
    03:00 +10°C° 0 mm 1 mps 769 mmHg 67%
    04:00 +11°C° 0 mm 1 mps 769 mmHg 66%
    05:00 +12°C° 0 mm 1 mps 769 mmHg 64%
    06:00 +12°C° 0 mm 2 mps 769 mmHg 63%
    07:00 +14°C° 0 mm 2 mps 769 mmHg 57%
    08:00 +16°C° 0 mm 1 mps 769 mmHg 52%
    09:00 +18°C° 0 mm 1 mps 768 mmHg 46%
    10:00 +18°C° 0 mm 2 mps 768 mmHg 42%
    11:00 +20°C° 0 mm 2 mps 767 mmHg 39%
    12:00 +21°C° 0 mm 3 mps 767 mmHg 35%
    13:00 +21°C° 0 mm 3 mps 766 mmHg 35%
    14:00 +21°C° 0 mm 3 mps 766 mmHg 34%
    15:00 +22°C° 0 mm 4 mps 765 mmHg 34%
    16:00 +20°C° 0 mm 4 mps 765 mmHg 38%
    17:00 +19°C° 0 mm 3 mps 765 mmHg 42%
    18:00 +18°C° 0 mm 3 mps 765 mmHg 45%
    19:00 +17°C° 0 mm 3 mps 765 mmHg 48%
    20:00 +16°C° 0 mm 2 mps 765 mmHg 51%
    21:00 +15°C° 0 mm 1 mps 765 mmHg 54%
    22:00 +14°C° 0 mm 1 mps 764 mmHg 55%
    23:00 +14°C° 0 mm 1 mps 764 mmHg 56%

    Day after tomorrow, 29 April, Saturday

    Time Temperature Precipitation Wind Pressure Humidity
    00:00 +14°C° 0 mm 1 mps 764 mmHg 57%
    01:00 +13°C° 0 mm 1 mps 763 mmHg 58%
    02:00 +13°C° 0 mm 1 mps 763 mmHg 58%
    03:00 +13°C° 0 mm 1 mps 763 mmHg 59%
    04:00 +14°C° 0 mm 1 mps 763 mmHg 57%
    05:00 +15°C° 0 mm 1 mps 763 mmHg 56%
    06:00 +15°C° 0 mm 1 mps 763 mmHg 54%
    07:00 +18°C° 0 mm 1 mps 762 mmHg 49%
    08:00 +20°C° 0 mm 1 mps 762 mmHg 43%
    09:00 +21°C° 0 mm 1 mps 762 mmHg 37%
    10:00 +23°C° 0 mm 2 mps 762 mmHg 36%
    11:00 +24°C° 0 mm 2 mps 762 mmHg 35%
    12:00 +25°C° 0 mm 2 mps 761 mmHg 33%
    13:00 +25°C° 0 mm 3 mps 761 mmHg 34%
    14:00 +25°C° 0 mm 4 mps 761 mmHg 35%
    15:00 +25°C° 0 mm 5 mps 760 mmHg 36%
    16:00 +23°C° 0 mm 5 mps 760 mmHg 39%
    17:00 +21°C° 0 mm 4 mps 760 mmHg 43%
    18:00 +20°C° 0 mm 4 mps 760 mmHg 46%
    19:00 +18°C° 0 mm 3 mps 760 mmHg 48%
    20:00 +17°C° 0 mm 2 mps 761 mmHg 50%
    21:00 +16°C° 0 mm 2 mps 761 mmHg 51%
    22:00 +16°C° 0 mm 2 mps 761 mmHg 52%
    23:00 +15°C° 0 mm 2 mps 760 mmHg 52%

    30 April, Sunday

    Time Temperature Precipitation Wind Pressure Humidity
    00:00 +15°C° 0 mm 2 mps 760 mmHg 53%
    01:00 +15°C° 0 mm 1 mps 760 mmHg 54%
    02:00 +14°C° 0 mm 1 mps 760 mmHg 56%
    03:00 +14°C° 0 mm 1 mps 760 mmHg 58%
    04:00 +15°C° 0 mm 1 mps 760 mmHg 56%
    05:00 +16°C° 0 mm 1 mps 760 mmHg 54%
    06:00 +16°C° 0 mm 1 mps 760 mmHg 53%
    07:00 +19°C° 0 mm 1 mps 760 mmHg 47%
    08:00 +21°C° 0 mm 1 mps 760 mmHg 41%
    09:00 +23°C° 0 mm 1 mps 760 mmHg 35%
    10:00 +24°C° 0 mm 1 mps 760 mmHg 34%
    11:00 +25°C° 0 mm 2 mps 759 mmHg 32%
    12:00 +27°C° 0 mm 2 mps 759 mmHg 30%
    13:00 +27°C° 0 mm 2 mps 759 mmHg 30%
    14:00 +27°C° 0 mm 3 mps 758 mmHg 29%
    15:00 +27°C° 0 mm 4 mps 758 mmHg 29%
    16:00 +26°C° 0 mm 4 mps 758 mmHg 32%
    17:00 +24°C° 0 mm 3 mps 758 mmHg 35%
    18:00 +22°C° 0 mm 3 mps 758 mmHg 39%
    19:00 +20°C° 0 mm 2 mps 758 mmHg 41%
    20:00 +19°C° 0 mm 2 mps 759 mmHg 43%
    21:00 +19°C° 0 mm 1 mps 759 mmHg 45%
    22:00 +18°C° 0 mm 1 mps 759 mmHg 46%
    23:00 +18°C° 0 mm 1 mps 759 mmHg 48%

    1 May, Monday

    Time Temperature Precipitation Wind Pressure Humidity
    00:00 +16°C° 0 mm 1 mps 759 mmHg 49%
    01:00 +16°C° 0 mm 1 mps 759 mmHg 50%
    02:00 +15°C° 0 mm 0 mps 758 mmHg 50%
    03:00 +15°C° 0 mm 0 mps 758 mmHg 51%
    04:00 +15°C° 0 mm 0 mps 759 mmHg 50%
    05:00 +16°C° 0 mm 0 mps 759 mmHg 49%
    06:00 +17°C° 0 mm 0 mps 759 mmHg 48%
    07:00 +19°C° 0 mm 0 mps 759 mmHg 43%
    08:00 +23°C° 0 mm 1 mps 760 mmHg 37%
    09:00 +25°C° 0 mm 1 mps 760 mmHg 31%
    10:00 +26°C° 0 mm 1 mps 760 mmHg 29%
    11:00 +28°C° 0 mm 1 mps 759 mmHg 27%
    12:00 +29°C° 0 mm 2 mps 759 mmHg 26%
    13:00 +29°C° 0 mm 2 mps 759 mmHg 25%
    14:00 +30°C° 0 mm 3 mps 759 mmHg 25%
    15:00 +30°C° 0 mm 4 mps 758 mmHg 24%
    16:00 +28°C° 0 mm 4 mps 759 mmHg 26%
    17:00 +26°C° 0 mm 4 mps 759 mmHg 29%
    18:00 +23°C° 0 mm 4 mps 759 mmHg 31%
    19:00 +22°C° 0 mm 3 mps 759 mmHg 33%
    20:00 +21°C° 0 mm 3 mps 760 mmHg 34%
    21:00 +19°C° 0 mm 2 mps 760 mmHg 36%
    22:00 +19°C° 0 mm 2 mps 760 mmHg 37%
    23:00 +18°C° 0 mm 2 mps 760 mmHg 38%

    2 May, Tuesday

    Time Temperature Precipitation Wind Pressure Humidity
    00:00 +18°C° 0 mm 1 mps 760 mmHg 39%
    01:00 +18°C° 0 mm 1 mps 760 mmHg 39%
    02:00 +17°C° 0 mm 2 mps 760 mmHg 39%
    03:00 +17°C° 0 mm 2 mps 759 mmHg 39%
    04:00 +18°C° 0 mm 1 mps 760 mmHg 40%
    05:00 +19°C° 0 mm 1 mps 760 mmHg 41%
    06:00 +19°C° 0 mm 1 mps 760 mmHg 41%
    07:00 +21°C° 0 mm 1 mps 760 mmHg 37%
    08:00 +23°C° 0 mm 1 mps 760 mmHg 33%
    09:00 +24°C° 0 mm 2 mps 760 mmHg 29%
    10:00 +26°C° 0 mm 2 mps 760 mmHg 27%
    11:00 +27°C° 0 mm 3 mps 760 mmHg 26%
    12:00 +28°C° 0 mm 3 mps 759 mmHg 24%
    13:00 +28°C° 0 mm 4 mps 759 mmHg 25%
    14:00 +28°C° 0 mm 5 mps 759 mmHg 25%
    15:00 +28°C° 0 mm 5 mps 758 mmHg 26%
    16:00 +27°C° 0 mm 5 mps 758 mmHg 29%
    17:00 +25°C° 0 mm 4 mps 758 mmHg 32%
    18:00 +24°C° 0 mm 3 mps 758 mmHg 35%
    19:00 +22°C° 0 mm 3 mps 758 mmHg 37%
    20:00 +20°C° 0 mm 2 mps 759 mmHg 39%
    21:00 +20°C° 0 mm 1 mps 759 mmHg 42%
    22:00 +19°C° 0 mm 2 mps 758 mmHg 42%
    23:00 +19°C° 0 mm 2 mps 758 mmHg 42%
    Show more